Select another period ( hide this area )

Units Period Custom range Directly to
Metric English Both
Daily Weekly Monthly Yearly
use both date-selectors for a custom range
previous Day
With this date

WeatherUnderground graphs for this period ( click here ) Loading the graph can take up to a minute!


Daily Summary for Sunday 26 May 2019
Time Temp. ( °C ) Dew pt. ( °C ) Wind ( km/h ) From Gust ( km/h ) Pressure ( hPa ) Humid.( % ) Rainrate ( cm )
High15,1 13,8 5,0 WSW ( 132/217 ) 10,5 1022,0 94 -
Average14,4 13,2 2,5 WSW #37/88 7,3 1021,0 92 -
Low13,7 12,6 -   2,6 1020,0 90 -
Daily Tabular details for Sunday 26 May 2019
Time Temp. ( °C ) Dew pt. ( °C ) Wind ( km/h ) From Gust ( km/h ) Pressure ( hPa ) Humid.( % ) Rainrate ( cm )
00:00 14,9 13,6 2,4 WSW 6,4 1022,0 92 -
00:05 15,0 13,7 2,6 WSW 8,7 1022,0 92 -
00:10 15,0 13,7 2,7 WSW 8,7 1022,0 92 -
00:15 15,0 13,7 1,8 West 6,1 1021,0 92 -
00:20 15,1 13,8 1,8 West 8,2 1021,0 92 -
00:25 15,1 13,8 2,7 West 9,7 1021,0 92 -
00:30 15,1 13,8 2,9 West 10,1 1021,0 92 -
00:35 15,1 13,8 2,7 West 10,1 1021,0 92 -
00:40 15,1 13,8 2,4 WNW 9,7 1021,0 92 -
00:45 15,1 13,8 2,9 WNW 7,2 1021,0 92 -
00:50 15,0 13,6 3,1 WNW 6,9 1021,0 91 -
00:55 14,9 13,6 1,8 WNW 6,1 1021,0 92 -
01:00 14,7 13,2 1,6 WNW 6,1 1022,0 91 -
01:05 14,6 13,2 1,9 WNW 6,1 1022,0 91 -
01:10 14,6 13,3 2,1 WNW 6,1 1022,0 92 -
01:15 14,6 13,3 1,6 West 6,1 1021,0 92 -
01:20 14,6 13,3 1,3 WNW 7,2 1021,0 92 -
01:25 14,6 13,3 1,6 WNW 7,2 1021,0 92 -
01:30 14,6 13,3 1,9 WNW 6,9 1021,0 92 -
01:35 14,6 13,3 2,7 WNW 6,9 1021,0 92 -
01:40 14,6 13,3 2,3 NW 6,4 1021,0 92 -
01:45 14,5 13,2 1,4 WNW 5,0 1021,0 92 -
01:50 14,5 13,2 1,1 WNW 5,0 1021,0 92 -
01:55 14,4 13,1 0,6 WNW 4,3 1021,0 92 -
02:00 14,2 12,9 0,2 WNW 3,2 1021,0 92 -
02:05 14,2 12,9 0,3 WNW 3,2 1021,0 92 -
02:10 14,1 12,8 1,1 WNW 5,8 1021,0 92 -
02:15 14,0 12,7 1,4 WNW 5,8 1021,0 92 -
02:20 14,0 12,7 1,1 WNW 6,1 1021,0 92 -
02:25 14,0 12,9 1,4 WNW 6,1 1021,0 93 -
02:30 14,0 12,9 2,3 WNW 7,2 1021,0 93 -
02:35 14,1 13,0 2,9 WNW 8,7 1021,0 93 -
02:40 14,1 13,0 2,3 WNW 8,7 1021,0 93 -
02:45 14,0 12,9 1,3 WNW 5,0 1020,0 93 -
02:50 14,0 12,9 1,3 WNW 5,5 1020,0 93 -
02:55 14,0 12,9 0,6 WNW 5,5 1020,0 93 -
03:00 13,9 12,8 0,5 WNW 5,0 1020,0 93 -
03:05 13,8 12,7 0,6 WNW 5,0 1020,0 93 -
03:10 13,9 12,8 0,6 WNW 6,9 1020,0 93 -
03:15 13,9 12,8 0,8 WNW 6,9 1021,0 93 -
03:20 13,9 12,8 0,6 WNW 6,1 1021,0 93 -
03:25 13,8 12,7 0,3 WNW 6,1 1021,0 93 -
03:30 13,7 12,6   Kalm 2,6 1021,0 93 -
03:35 13,7 12,6 0,5 West 6,1 1021,0 93 -
03:40 13,7 12,6 0,6 WNW 6,1 1021,0 93 -
03:45 13,8 12,8 0,6 West 4,3 1021,0 94 -
03:50 13,9 12,9 1,4 WNW 8,7 1021,0 94 -
03:55 14,1 13,2 2,3 WNW 9,7 1021,0 94 -
04:00 14,2 13,2 2,6 West 9,7 1021,0 94 -
04:05 14,2 13,2 2,3 West 7,2 1021,0 94 -
04:10 14,3 13,3 1,9 West 6,1 1021,0 94 -
04:15 14,3 13,3 2,1 WSW 6,4 1020,0 94 -
04:20 14,3 13,2 3,2 WSW 8,7 1020,0 93 -
04:25 14,3 13,2 4,2 WSW 9,0 1020,0 93 -
04:30 14,3 13,2 3,4 West 9,0 1021,0 93 -
04:35 14,4 13,3 2,9 WSW 7,2 1021,0 93 -
04:40 14,4 13,3 3,4 WSW 7,9 1021,0 93 -
04:45 14,4 13,3 3,7 WSW 7,9 1022,0 93 -
04:50 14,5 13,4 4,0 WSW 9,0 1022,0 93 -
04:55 14,5 13,4 3,9 WSW 9,0 1022,0 93 -
05:00 14,5 13,4 2,7 WSW 7,9 1021,0 93 -
05:05 14,5 13,4 3,7 WSW 8,2 1021,0 93 -
05:10 14,5 13,4 4,0 WSW 8,2 1021,0 93 -
05:15 14,5 13,4 2,9 WSW 6,9 1021,0 93 -
05:20 14,5 13,4 3,4 WSW 7,2 1021,0 93 -
05:25 14,5 13,4 4,2 WSW 7,2 1021,0 93 -
05:30 14,5 13,4 4,2 WSW 7,2 1021,0 93 -
05:35 14,5 13,4 4,0 WSW 9,0 1021,0 93 -
05:40 14,5 13,4 3,4 WSW 9,0 1021,0 93 -
05:45 14,5 13,2 2,9 WSW 6,9 1021,0 92 -
05:50 14,5 13,2 3,5 WSW 7,2 1021,0 92 -
05:55 14,5 13,2 4,2 WSW 8,7 1021,0 92 -
06:00 14,5 13,2 3,9 WSW 8,7 1021,0 92 -
06:05 14,5 13,2 3,4 West 7,2 1021,0 92 -
06:10 14,5 13,2 3,4 West 7,2 1021,0 92 -
06:15 14,5 13,2 2,9 WSW 6,1 1021,0 92 -
06:20 14,5 13,2 2,9 WSW 8,7 1021,0 92 -
06:25 14,5 13,2 3,9 WSW 8,7 1021,0 92 -
06:30 14,5 13,1 3,9 WSW 7,9 1021,0 91 -
06:35 14,5 13,2 3,5 WSW 7,2 1021,0 92 -
06:40 14,5 13,2 3,5 WSW 7,2 1021,0 92 -
06:45 14,5 13,2 3,7 WSW 9,0 1021,0 92 -
06:50 14,5 13,1 3,7 WSW 9,0 1021,0 91 -
06:55 14,5 13,1 3,9 WSW 10,5 1021,0 91 -
07:00 14,5 12,9 5,0 WSW 10,5 1020,0 90 -
07:05 14,5 12,9 4,8 WSW 10,1 1020,0 90 -
07:10 14,5 13,1 3,9 WSW 9,0 1020,0 91 -
07:15 14,5 12,9 4,7 WSW 10,5 1021,0 90 -
Daily Summary for Sunday 26 May 2019
Time Temp. ( °C ) Dew pt. ( °C ) Wind ( km/h ) From Gust ( km/h ) Pressure ( hPa ) Humid.( % ) Rainrate ( cm )
High15,1 13,8 5,0 WSW ( 132/217 ) 10,5 1022,0 94 -
Average14,4 13,2 2,5 WSW #37/88 7,3 1021,0 92 -
Low13,7 12,6 -   2,6 1020,0 90 -
Daily Tabular details for Sunday 26 May 2019
Time Temp. ( °C ) Dew pt. ( °C ) Wind ( km/h ) From Gust ( km/h ) Pressure ( hPa ) Humid.( % ) Rainrate ( cm )
00:00 14,9 13,6 2,4 WSW 6,4 1022,0 92 -
00:05 15,0 13,7 2,6 WSW 8,7 1022,0 92 -
00:10 15,0 13,7 2,7 WSW 8,7 1022,0 92 -
00:15 15,0 13,7 1,8 West 6,1 1021,0 92 -
00:20 15,1 13,8 1,8 West 8,2 1021,0 92 -
00:25 15,1 13,8 2,7 West 9,7 1021,0 92 -
00:30 15,1 13,8 2,9 West 10,1 1021,0 92 -
00:35 15,1 13,8 2,7 West 10,1 1021,0 92 -
00:40 15,1 13,8 2,4 WNW 9,7 1021,0 92 -
00:45 15,1 13,8 2,9 WNW 7,2 1021,0 92 -
00:50 15,0 13,6 3,1 WNW 6,9 1021,0 91 -
00:55 14,9 13,6 1,8 WNW 6,1 1021,0 92 -
01:00 14,7 13,2 1,6 WNW 6,1 1022,0 91 -
01:05 14,6 13,2 1,9 WNW 6,1 1022,0 91 -
01:10 14,6 13,3 2,1 WNW 6,1 1022,0 92 -
01:15 14,6 13,3 1,6 West 6,1 1021,0 92 -
01:20 14,6 13,3 1,3 WNW 7,2 1021,0 92 -
01:25 14,6 13,3 1,6 WNW 7,2 1021,0 92 -
01:30 14,6 13,3 1,9 WNW 6,9 1021,0 92 -
01:35 14,6 13,3 2,7 WNW 6,9 1021,0 92 -
01:40 14,6 13,3 2,3 NW 6,4 1021,0 92 -
01:45 14,5 13,2 1,4 WNW 5,0 1021,0 92 -
01:50 14,5 13,2 1,1 WNW 5,0 1021,0 92 -
01:55 14,4 13,1 0,6 WNW 4,3 1021,0 92 -
02:00 14,2 12,9 0,2 WNW 3,2 1021,0 92 -
02:05 14,2 12,9 0,3 WNW 3,2 1021,0 92 -
02:10 14,1 12,8 1,1 WNW 5,8 1021,0 92 -
02:15 14,0 12,7 1,4 WNW 5,8 1021,0 92 -
02:20 14,0 12,7 1,1 WNW 6,1 1021,0 92 -
02:25 14,0 12,9 1,4 WNW 6,1 1021,0 93 -
02:30 14,0 12,9 2,3 WNW 7,2 1021,0 93 -
02:35 14,1 13,0 2,9 WNW 8,7 1021,0 93 -
02:40 14,1 13,0 2,3 WNW 8,7 1021,0 93 -
02:45 14,0 12,9 1,3 WNW 5,0 1020,0 93 -
02:50 14,0 12,9 1,3 WNW 5,5 1020,0 93 -
02:55 14,0 12,9 0,6 WNW 5,5 1020,0 93 -
03:00 13,9 12,8 0,5 WNW 5,0 1020,0 93 -
03:05 13,8 12,7 0,6 WNW 5,0 1020,0 93 -
03:10 13,9 12,8 0,6 WNW 6,9 1020,0 93 -
03:15 13,9 12,8 0,8 WNW 6,9 1021,0 93 -
03:20 13,9 12,8 0,6 WNW 6,1 1021,0 93 -
03:25 13,8 12,7 0,3 WNW 6,1 1021,0 93 -
03:30 13,7 12,6   Kalm 2,6 1021,0 93 -
03:35 13,7 12,6 0,5 West 6,1 1021,0 93 -
03:40 13,7 12,6 0,6 WNW 6,1 1021,0 93 -
03:45 13,8 12,8 0,6 West 4,3 1021,0 94 -
03:50 13,9 12,9 1,4 WNW 8,7 1021,0 94 -
03:55 14,1 13,2 2,3 WNW 9,7 1021,0 94 -
04:00 14,2 13,2 2,6 West 9,7 1021,0 94 -
04:05 14,2 13,2 2,3 West 7,2 1021,0 94 -
04:10 14,3 13,3 1,9 West 6,1 1021,0 94 -
04:15 14,3 13,3 2,1 WSW 6,4 1020,0 94 -
04:20 14,3 13,2 3,2 WSW 8,7 1020,0 93 -
04:25 14,3 13,2 4,2 WSW 9,0 1020,0 93 -
04:30 14,3 13,2 3,4 West 9,0 1021,0 93 -
04:35 14,4 13,3 2,9 WSW 7,2 1021,0 93 -
04:40 14,4 13,3 3,4 WSW 7,9 1021,0 93 -
04:45 14,4 13,3 3,7 WSW 7,9 1022,0 93 -
04:50 14,5 13,4 4,0 WSW 9,0 1022,0 93 -
04:55 14,5 13,4 3,9 WSW 9,0 1022,0 93 -
05:00 14,5 13,4 2,7 WSW 7,9 1021,0 93 -
05:05 14,5 13,4 3,7 WSW 8,2 1021,0 93 -
05:10 14,5 13,4 4,0 WSW 8,2 1021,0 93 -
05:15 14,5 13,4 2,9 WSW 6,9 1021,0 93 -
05:20 14,5 13,4 3,4 WSW 7,2 1021,0 93 -
05:25 14,5 13,4 4,2 WSW 7,2 1021,0 93 -
05:30 14,5 13,4 4,2 WSW 7,2 1021,0 93 -
05:35 14,5 13,4 4,0 WSW 9,0 1021,0 93 -
05:40 14,5 13,4 3,4 WSW 9,0 1021,0 93 -
05:45 14,5 13,2 2,9 WSW 6,9 1021,0 92 -
05:50 14,5 13,2 3,5 WSW 7,2 1021,0 92 -
05:55 14,5 13,2 4,2 WSW 8,7 1021,0 92 -
06:00 14,5 13,2 3,9 WSW 8,7 1021,0 92 -
06:05 14,5 13,2 3,4 West 7,2 1021,0 92 -
06:10 14,5 13,2 3,4 West 7,2 1021,0 92 -
06:15 14,5 13,2 2,9 WSW 6,1 1021,0 92 -
06:20 14,5 13,2 2,9 WSW 8,7 1021,0 92 -
06:25 14,5 13,2 3,9 WSW 8,7 1021,0 92 -
06:30 14,5 13,1 3,9 WSW 7,9 1021,0 91 -
06:35 14,5 13,2 3,5 WSW 7,2 1021,0 92 -
06:40 14,5 13,2 3,5 WSW 7,2 1021,0 92 -
06:45 14,5 13,2 3,7 WSW 9,0 1021,0 92 -
06:50 14,5 13,1 3,7 WSW 9,0 1021,0 91 -
06:55 14,5 13,1 3,9 WSW 10,5 1021,0 91 -
07:00 14,5 12,9 5,0 WSW 10,5 1020,0 90 -
07:05 14,5 12,9 4,8 WSW 10,1 1020,0 90 -
07:10 14,5 13,1 3,9 WSW 9,0 1020,0 91 -
07:15 14,5 12,9 4,7 WSW 10,5 1021,0 90 -

Download your copy of this data-set  from WeatherUnderground

Our weather-data as stored at Weather Underground. Original script b Jim McMurry. Rewritten for template use Leuven-Template